Content
SEND FEEDBACK

Daily
Averages
Monthly
Summary
United States of America

BUCYRUS, OHIO


Home > North America > United States > Ohio
Elevation: 1005 feet     Latitude: 40 49N     Longitude: 082 58W

WEATHER
 
SELECT A DAY
Number of Records: 186,981;   Date Range: 5/6/98 - 9/18/14
 
SHARE

PRINT THIS DATA

[ ← Previous Day ]
WEATHER ALMANAC - JANUARY 23, 2013
[ Next Day → ]
[ °C ]   °F
Weather ElementAverageHighLow
Temperature13.7 °F18 °F (2:53 pm)7 °F (1:53 am)
Dewpoint4.5 °F12.9 °F (10:53 pm)-2 °F (4:53 am)
Humidity68.3 %88 % (10:53 pm)48 % (2:53 pm)
Barometer30.21 in30.35 in (2:53 am)30.05 in (10:51 pm)
Wind Speed7.2 mph13.8 mph (1:53 pm)
Wind Gust18.4 mph (1:53 pm)
Weather ElementAverage
Visibility7.5 mi
Wind DirectionWSW (256.9 °)

Weather ElementTotal
Precipitation---
Heating Degree Days52.5 (Base 65)
Averaged from 29 records on January 23, 2013
WEATHER CONDITIONS BREAKOUT
WIND DIRECTION BREAKOUT
WEATHER BY HOUR - JANUARY 23, 2013
[ °C ]   °F
Local TimeTemperatureDewpointHumidityBarometerVisibilityWind DirectionWind SpeedGust SpeedPrecipitationEventsConditions
1:53 AM7.0 °F-0.9 °F70 %30.34 in10.0 miWest (260°)4.6 mphClear
2:53 AM7.0 °F-0.9 °F70 %30.35 in10.0 miWest (260°)5.8 mphClear
3:53 AM7.0 °F-0.9 °F70 %30.34 in10.0 miWest (270°)4.6 mphClear
4:53 AM7.0 °F-2.0 °F67 %30.34 in10.0 miWest (280°)6.9 mphClear
5:53 AM7.0 °F-2.0 °F67 %30.34 in10.0 miWest (260°)5.8 mphClear
6:53 AM7.0 °F-2.0 °F67 %30.35 in10.0 miWSW (250°)5.8 mphMostly Cloudy
7:53 AM9.0 °F-0.9 °F64 %30.35 in10.0 miWest (260°)6.9 mphOvercast
8:53 AM10.0 °F-0.9 °F61 %30.34 in10.0 miWest (280°)8.1 mphOvercast
9:53 AM10.9 °F0.0 °F61 %30.34 in10.0 miWSW (240°)6.9 mphOvercast
10:53 AM12.9 °F0.0 °F56 %30.33 in10.0 miWSW (240°)6.9 mphOvercast
11:53 AM15.1 °F-0.9 °F49 %30.31 in10.0 miSW (230°)11.5 mphOvercast
12:53 PM16.0 °F0.0 °F49 %30.27 in10.0 miSW (230°)10.4 mphOvercast
1:53 PM17.1 °F1.0 °F50 %30.24 in10.0 miWSW (250°)13.8 mph18.4 mphOvercast
2:53 PM18.0 °F1.0 °F48 %30.22 in10.0 miSW (230°)10.4 mphOvercast
3:53 PM18.0 °F1.0 °F48 %30.20 in10.0 miWSW (250°)8.1 mphOvercast
4:53 PM18.0 °F1.0 °F48 %30.17 in10.0 miWest (260°)5.8 mphOvercast
5:53 PM18.0 °F3.0 °F52 %30.17 in10.0 miWSW (240°)9.2 mphOvercast
6:53 PM18.0 °F5.0 °F57 %30.17 in10.0 miWSW (250°)10.4 mphOvercast
7:53 PM16.0 °F9.0 °F74 %30.15 in5.0 miWSW (240°)10.4 mph0.00 inSnowLight Snow
8:53 PM16.0 °F10.0 °F77 %30.14 in10.0 miWSW (240°)6.9 mph0.00 inOvercast
9:53 PM16.0 °F12.0 °F84 %30.12 in4.0 miWSW (240°)6.9 mph0.00 inSnowLight Snow
10:41 PM15.8 °F12.2 °F86 %30.06 in2.5 miWest (270°)4.6 mph0.00 inSnowLight Snow
10:51 PM15.8 °F12.2 °F86 %30.05 in2.0 miWest (270°)4.6 mph0.00 inSnowLight Snow
10:53 PM16.0 °F12.9 °F88 %30.12 in2.0 miWest (270°)3.5 mph0.00 inSnowLight Snow
11:10 PM15.8 °F12.2 °F86 %30.05 in2.5 miWest (270°)6.9 mph0.00 inSnowLight Snow
11:18 PM15.8 °F12.2 °F86 %30.05 in2.0 miWest (280°)4.6 mph0.00 inSnowLight Snow
11:26 PM15.8 °F12.2 °F86 %30.05 in1.8 miWest (280°)6.9 mph0.00 inSnowLight Snow
11:36 PM15.8 °F12.2 °F86 %30.05 in2.5 miWest (280°)5.8 mph0.00 inSnowLight Snow
11:53 PM16.0 °F12.9 °F88 %30.11 in2.5 miWest (270°)4.6 mph0.00 inSnowLight Snow
Hourly data recorded from KMNN, located miles away from Bucyrus, Ohio







STORIES FROM OUR PARTNERS